Location: *
(44.1392°N, 4.8079°E)
Time: 06:52:09
(UTC+00:00)

Cosmos 1943 - Pass Details

Date: 21 June 2021
Orbit: 831 x 852 km, 71.0° (Epoch: 31 July)

Event Time Altitude Azimuth Distance (km) Brightness Sun altitude
Exits shadow 01:18:55 25° 243° (WSW) 1,610 4.2 -18.9°
Maximum altitude 01:21:46 46° 302° (WNW) 1,120 3.9 -18.7°
Drops below altitude 10° 01:27:12 10° 15° (NNE) 2,466 6.8 -18.3°
Sets 01:29:46 0° 22° (NNE) 3,408 8.1 -18.1°
